[[{"header":{"parameterUnit":"m.s-1","parameterCategory":1,"la1":30.2991,"la2":30.254,"lo1":-89.0895,"lo2":-89.0444,"dy":0.0017,"dx":0.0017,"nx":28,"ny":28,"refTime":"2023-09-07T21:00:00:Z","depth":0,"parameterNumber":2,"parameterNumberName":"U-component_of_WINDS"},"data":[0,0,0,0,0,0,0,0,0,0,0,0,0,0,0,0,0,0,0,0,0,0,0,0,0,0,0,0,0,0,0,0,0,0,0,0,0,0,0,0,0,0,0,0,0,0,0,0,0,0,0,0,0,0,0,0,0,0,1.437,1.4371,0,1.4441,1.4441,1.4442,1.4464,1.4464,1.4464,1.4463,1.454,1.4542,1.4544,0,0,0,0,0,0,0,0,0,0,0,0,0,1.4258,1.426,1.437,1.4371,1.4372,1.4441,1.4442,1.4443,1.4464,1.4464,1.4464,1.4463,1.4539,1.4542,1.4545,0,0,0,0,0,0,0,0,0,0,0,0,0,1.4315,1.426,1.437,1.4391,1.4393,1.444,1.4442,1.4443,1.4464,1.4464,1.4463,1.4463,1.4538,1.4542,1.4545,1.4578,0,0,1.4556,1.4557,0,0,0,0,0,0,0,0,1.4312,1.4319,1.4387,1.4389,1.4392,1.4443,1.443,1.4488,1.4465,1.4438,1.4463,1.4463,1.4508,1.4514,1.4529,1.4581,1.4584,1.4556,1.4558,1.456,1.4561,0,0,0,0,0,0,0,1.4308,1.4317,1.4398,1.4388,1.4391,1.4398,1.4406,1.4441,1.4475,1.444,1.4442,1.445,1.451,1.4525,1.4531,1.4586,1.4556,1.4559,1.4561,1.4563,1.4669,1.467,0,0,0,0,0,0,1.43,1.4313,1.4396,1.44,1.435,1.44,1.4409,1.4427,1.4475,1.4481,1.445,1.445,1.452,1.4527,1.4534,1.4575,1.456,1.4563,1.4565,1.4669,1.4669,1.467,0,0,0,0,0,0,1.4297,1.4307,1.4393,1.4357,1.4368,1.4403,1.4423,1.4429,1.4445,1.4482,1.4489,1.4459,1.4519,1.4529,1.4566,1.4578,1.4565,1.4568,1.4668,1.4669,1.467,1.4658,0,0,0,0,0,0,1.4294,1.4306,1.4317,1.4357,1.437,1.4423,1.4424,1.4431,1.445,1.4451,1.4493,1.4499,1.452,1.4561,1.457,1.4583,1.4571,1.4667,1.4668,1.467,1.4658,1.4659,1.4659,0,0,0,0,0,1.429,1.4312,1.4318,1.4328,1.4385,1.4424,1.4431,1.4453,1.4451,1.4464,1.4488,1.4498,1.4575,1.4565,1.4575,1.4589,1.4666,1.4668,1.4669,1.4657,1.4658,1.4659,0,0,0,0,0,0,1.4274,1.4317,1.4325,1.436,1.4388,1.4427,1.4444,1.4454,1.4484,1.4484,1.4511,1.452,1.4556,1.4577,1.4564,1.4624,1.4621,1.4625,1.4609,1.461,1.4611,1.4605,1.4574,0,0,0,0,0,1.4274,1.43,1.4338,1.4365,1.4379,1.4409,1.4426,1.4441,1.4471,1.4484,1.4511,1.4541,1.4573,1.4593,1.4623,1.4661,1.4671,1.4676,1.4677,1.4677,1.468,1.4703,1.4705,1.4675,1.4675,1.4675,0,0,1.4275,1.4303,1.4318,1.4363,1.4386,1.4414,1.4419,1.4448,1.4469,1.4489,1.4525,1.4547,1.4583,1.462,1.4639,1.4639,1.4691,1.4679,1.468,1.4682,1.4704,1.4707,1.471,1.4677,1.4676,1.4676,0,0,1.4292,1.4315,1.434,1.4364,1.4399,1.4419,1.4425,1.4463,1.4477,1.4515,1.453,1.4557,1.461,1.4635,1.4655,1.4682,1.4693,1.4692,1.4697,1.4718,1.472,1.4723,1.4733,1.4736,1.4695,1.4695,1.4695,0,1.4289,1.433,1.4353,1.4381,1.4401,1.4419,1.4446,1.4468,1.4512,1.4526,1.4525,1.4592,1.4618,1.4662,1.4669,1.4684,1.4693,1.4687,1.4718,1.472,1.4723,1.4733,1.4737,1.4694,1.4694,1.4694,1.4694,0,1.4326,1.4354,1.4371,1.4412,1.4434,1.4462,1.4489,1.4509,1.4522,1.4543,1.4582,1.4613,1.4651,1.4662,1.4676,1.4709,1.4708,1.4712,1.4711,1.4725,1.4735,1.4739,1.4694,1.4694,1.4694,1.4694,0,0,1.4333,1.4386,1.4392,1.4411,1.4452,1.4475,1.4504,1.454,1.4557,1.4587,1.4613,1.4658,1.4662,1.4685,1.4701,1.472,1.474,1.4722,1.4724,1.4725,1.478,1.4776,1.478,1.4748,1.4749,1.4749,1.4777,0,1.4355,1.4406,1.4427,1.447,1.4497,1.4515,1.4541,1.4569,1.459,1.4617,1.464,1.4672,1.4675,1.4689,1.4708,1.4734,1.4752,1.4732,1.4773,1.4774,1.4763,1.4785,1.4781,1.4806,1.4781,1.4782,1.4782,0,1.4386,1.4416,1.446,1.4498,1.4511,1.4533,1.4568,1.4594,1.4627,1.4641,1.4666,1.4682,1.4715,1.4711,1.4758,1.4744,1.4762,1.4778,1.4779,1.4784,1.4779,1.4791,1.4814,1.4818,1.4788,1.4788,1.4787,0,1.4387,1.4438,1.4472,1.4487,1.4533,1.4548,1.4568,1.4601,1.4621,1.4653,1.4666,1.4702,1.4721,1.4749,1.4774,1.4769,1.4819,1.4817,1.4832,1.4831,1.4841,1.484,1.4868,1.4853,1.4853,1.4853,1.4853,0,1.4409,1.4436,1.4473,1.4493,1.4524,1.4549,1.458,1.4601,1.463,1.4656,1.4675,1.4699,1.4731,1.476,1.4781,1.4817,1.4825,1.4838,1.4843,1.4836,1.4835,1.4849,1.4847,1.4854,1.4854,1.4853,1.4853,0,1.4415,1.4441,1.4478,1.4518,1.4529,1.455,1.4585,1.4606,1.4628,1.466,1.467,1.4704,1.4739,1.4767,1.4814,1.4827,1.4865,1.4871,1.4853,1.4856,1.4869,1.4867,1.4907,1.4913,1.4894,1.4894,1.4894,0,1.4427,1.4448,1.449,1.4508,1.4527,1.4557,1.4578,1.4604,1.4626,1.4666,1.4683,1.4719,1.4749,1.4804,1.4834,1.487,1.4877,1.4888,1.4883,1.4875,1.4877,1.4876,1.4878,1.4889,1.4889,1.4889,1.4889,0,1.4446,1.4458,1.4486,1.452,1.4545,1.4573,1.4601,1.4616,1.4648,1.4671,1.4706,1.473,1.4777,1.4813,1.4852,1.4874,1.4887,1.4891,1.4896,1.4889,1.4878,1.4884,1.4855,1.489,1.489,1.4889,1.4889,1.4889,1.4455,1.4475,1.4508,1.454,1.4564,1.459,1.4613,1.4637,1.4667,1.4706,1.472,1.4757,1.4792,1.4845,1.4867,1.4897,1.4899,1.4906,1.4908,1.491,1.4909,1.4873,1.4905,1.4905,1.4905,1.4905,1.4905,0,1.4475,1.4497,1.4526,1.4566,1.4591,1.4601,1.4633,1.4654,1.4686,1.4716,1.4745,1.4787,1.4822,1.4855,1.4892,1.491,1.4917,1.4919,1.4918,1.4923,1.4906,1.4897,1.4913,1.4913,1.4913,1.4913,1.4913,1.4913,1.4488,1.4522,1.4538,1.4585,1.4607,1.4642,1.466,1.4686,1.471,1.4755,1.4784,1.4805,1.4837,1.4877,1.491,1.4919,1.4932,1.4932,1.4943,1.4925,1.4924,1.4923,1.4915,1.4935,1.4935,1.4958,1.4958,1.4958]},{"header":{"parameterUnit":"m.s-1","parameterCategory":1,"la1":30.2991,"la2":30.254,"lo1":-89.0895,"lo2":-89.0444,"dy":0.0017,"dx":0.0017,"nx":28,"ny":28,"refTime":"2023-09-07T21:00:00:Z","depth":0,"parameterNumber":3,"parameterNumberName":"V-component_of_WINDS"},"data":[0,0,0,0,0,0,0,0,0,0,0,0,0,0,0,0,0,0,0,0,0,0,0,0,0,0,0,0,0,0,0,0,0,0,0,0,0,0,0,0,0,0,0,0,0,0,0,0,0,0,0,0,0,0,0,0,0,0,1.2224,1.2225,0,1.2345,1.2347,1.2348,1.228,1.2277,1.2273,1.227,1.2394,1.2401,1.2407,0,0,0,0,0,0,0,0,0,0,0,0,0,1.193,1.1936,1.2224,1.2225,1.2227,1.2345,1.2347,1.2348,1.2281,1.2277,1.2273,1.2269,1.2392,1.24,1.2408,0,0,0,0,0,0,0,0,0,0,0,0,0,1.2055,1.1938,1.2224,1.2207,1.2207,1.2345,1.2347,1.2349,1.2282,1.2277,1.2271,1.2267,1.239,1.2399,1.2409,1.2569,0,0,1.2438,1.2442,0,0,0,0,0,0,0,0,1.2048,1.2066,1.2208,1.2209,1.2209,1.2292,1.2289,1.2423,1.2283,1.2253,1.227,1.2264,1.2365,1.2376,1.241,1.2575,1.258,1.2439,1.2445,1.2449,1.2452,0,0,0,0,0,0,0,1.204,1.206,1.2272,1.221,1.2211,1.2193,1.2205,1.2314,1.2336,1.2256,1.2251,1.2266,1.2364,1.2401,1.2412,1.2582,1.2439,1.2447,1.2453,1.2457,1.2879,1.2884,0,0,0,0,0,0,1.2032,1.2054,1.2268,1.2276,1.2114,1.2202,1.2216,1.2271,1.2334,1.2339,1.227,1.2263,1.2387,1.2401,1.2416,1.2604,1.2449,1.2458,1.2464,1.2873,1.288,1.2886,0,0,0,0,0,0,1.2026,1.2052,1.2263,1.2163,1.2189,1.2213,1.2275,1.2276,1.2313,1.2346,1.2349,1.2304,1.2383,1.2403,1.253,1.2608,1.2462,1.2471,1.2867,1.2875,1.2883,1.2984,0,0,0,0,0,0,1.2018,1.205,1.2113,1.2165,1.2195,1.2377,1.228,1.2282,1.2329,1.232,1.2378,1.2383,1.2381,1.2516,1.254,1.2618,1.2479,1.286,1.2871,1.288,1.2974,1.2995,1.3012,0,0,0,0,0,1.2008,1.2138,1.2116,1.2143,1.2273,1.2381,1.2398,1.2393,1.2336,1.2398,1.2418,1.2381,1.2596,1.253,1.2556,1.2639,1.2855,1.2868,1.288,1.2965,1.299,1.3012,0,0,0,0,0,0,1.2095,1.2144,1.2121,1.2272,1.2323,1.237,1.2448,1.2421,1.2489,1.2477,1.2468,1.2481,1.2613,1.2639,1.2565,1.2794,1.2716,1.2734,1.2773,1.2797,1.2816,1.2806,1.2487,0,0,0,0,0,1.2132,1.2216,1.2254,1.2384,1.241,1.2425,1.2472,1.2463,1.2515,1.2536,1.2566,1.2618,1.2696,1.2748,1.2823,1.2977,1.2986,1.3046,1.3066,1.3081,1.3096,1.3175,1.3201,1.2926,1.2926,1.2925,0,0,1.2209,1.2246,1.23,1.2402,1.244,1.2526,1.2444,1.2539,1.2602,1.2551,1.2672,1.2696,1.2752,1.2892,1.2956,1.2918,1.3174,1.3097,1.3109,1.3116,1.319,1.3216,1.3239,1.2934,1.2933,1.2931,0,0,1.2391,1.243,1.2539,1.2578,1.2637,1.2645,1.2671,1.2721,1.2734,1.2856,1.2817,1.2891,1.3028,1.3068,1.3107,1.33,1.3267,1.3325,1.3424,1.3501,1.3523,1.3542,1.3606,1.363,1.334,1.334,1.334,0,1.248,1.2608,1.2599,1.2696,1.274,1.2697,1.2806,1.2844,1.2924,1.2955,1.2911,1.3078,1.3113,1.326,1.3306,1.3341,1.3367,1.3317,1.352,1.3539,1.3557,1.3618,1.3643,1.3346,1.3346,1.3345,1.3344,0,1.2711,1.28,1.2882,1.2958,1.3011,1.3114,1.3119,1.3174,1.3159,1.3171,1.3292,1.3333,1.3412,1.3447,1.3435,1.3591,1.3564,1.3521,1.3442,1.359,1.3647,1.3671,1.3355,1.3353,1.3351,1.335,0,0,1.2955,1.3021,1.3051,1.3082,1.3141,1.3209,1.3308,1.3385,1.343,1.3486,1.3566,1.3681,1.3639,1.3683,1.3674,1.3742,1.3886,1.3689,1.369,1.3721,1.4055,1.4085,1.4113,1.3865,1.387,1.3873,1.4049,0,1.3138,1.3311,1.3304,1.3465,1.3544,1.3502,1.3587,1.3632,1.3645,1.3713,1.3727,1.3806,1.3748,1.3773,1.3838,1.3855,1.3953,1.3843,1.3937,1.3941,1.3922,1.4144,1.4177,1.4341,1.4072,1.4076,1.4079,0,1.3377,1.3438,1.3606,1.3648,1.3681,1.3759,1.3825,1.3892,1.394,1.3944,1.399,1.3969,1.4066,1.3986,1.4118,1.4043,1.4081,1.4094,1.4101,1.4107,1.4017,1.4153,1.4394,1.4417,1.4115,1.4112,1.4109,0,1.3532,1.3657,1.3772,1.3801,1.3855,1.3909,1.3933,1.3976,1.4021,1.4079,1.4107,1.4177,1.4214,1.4267,1.4264,1.4207,1.4396,1.4317,1.4399,1.44,1.444,1.4437,1.4687,1.447,1.4469,1.4469,1.4468,0,1.3737,1.3841,1.3842,1.3913,1.4026,1.4016,1.4128,1.4146,1.4184,1.4256,1.4224,1.4292,1.4285,1.4353,1.4352,1.4458,1.4476,1.448,1.4478,1.4482,1.448,1.4505,1.4492,1.4475,1.4474,1.4473,1.4472,0,1.393,1.3935,1.4057,1.4096,1.4108,1.419,1.4222,1.4288,1.4297,1.4387,1.4408,1.4422,1.4499,1.4502,1.4592,1.459,1.4719,1.4705,1.4702,1.4699,1.478,1.4771,1.5052,1.5086,1.485,1.4852,1.4854,0,1.4059,1.4137,1.4183,1.4228,1.4256,1.433,1.4374,1.4366,1.4413,1.4471,1.4529,1.4603,1.4661,1.4787,1.4803,1.487,1.4856,1.495,1.4866,1.4866,1.4853,1.4847,1.4853,1.4966,1.4969,1.4971,1.4973,0,1.4286,1.4283,1.4349,1.4414,1.4468,1.4519,1.4567,1.4606,1.4602,1.4657,1.4734,1.478,1.4869,1.4942,1.5006,1.5029,1.4999,1.4999,1.5021,1.5024,1.5017,1.5018,1.4743,1.4992,1.499,1.4989,1.4988,1.4987,1.4449,1.4514,1.4555,1.4628,1.4662,1.4706,1.4768,1.4783,1.4848,1.4919,1.491,1.4996,1.5037,1.5119,1.5148,1.5213,1.518,1.5214,1.5221,1.5229,1.5235,1.5009,1.5225,1.5225,1.5224,1.5224,1.5223,0,1.4671,1.4694,1.4761,1.4827,1.4883,1.4849,1.4899,1.4947,1.5023,1.5064,1.5121,1.5208,1.5277,1.5298,1.5364,1.5412,1.5399,1.5429,1.5424,1.5429,1.5263,1.5236,1.5438,1.5438,1.5438,1.5438,1.5437,1.5437,1.4793,1.49,1.4902,1.5024,1.5046,1.513,1.516,1.5199,1.523,1.5329,1.5385,1.5398,1.543,1.5497,1.5558,1.5562,1.5586,1.5621,1.5619,1.5463,1.5441,1.5421,1.5395,1.5627,1.5627,1.5779,1.578,1.5781]}]]